Regional Weather Roundup
Issued by NWS Newport/Morehead, NC

Current Version | Previous Version | Graphics & Text | Print | Product List | Glossary On
Versions: 1 2 3 4 5 6 7 8 9 10 11 12 13 14 15 16 17 18 19 20 21 22 23 24 25 26 27 28 29 30 31 32 33 34 35 36 37 38 39 40 41 42 43 44 45 46 47 48 49 50
000 ASUS42 KMHX 181625 RWRMHX WEATHER ROUNDUP FOR EASTERN NORTH CAROLINA NATIONAL WEATHER SERVICE NEWPORT/MOREHEAD CITY NC 1200 PM EDT WED OCT 18 2017 NOTE: "FAIR" INDICATES FEW OR NO CLOUDS BELOW 12,000 FEET WITH NO SIGNIFICANT WEATHER AND/OR OBSTRUCTIONS TO VISIBILITY NCZ015>017-031-032-045>047-102-103-181700- NORTH COAST CITY SKY/WX TMP DP RH WIND PRES REMARKS EDENTON SUNNY 68 52 57 E7 30.39R ELIZABETH CITY MOSUNNY 67 52 58 NE13 30.39R KITTY HAWK SUNNY 67 51 56 NE7 30.36R MANTEO SUNNY N/A N/A N/A NE15 30.37R $$ NCZ045>047-081-094-103-104-181700- CENTRAL COAST CITY SKY/WX TMP DP RH WIND PRES REMARKS FRISCO MOSUNNY 71 58 63 NE8G16 30.33S $$ NCZ095-097-098-100-101-181700- SOUTHERN COAST CITY SKY/WX TMP DP RH WIND PRES REMARKS BEAUFORT SUNNY 71 53 52 N13 30.33S CEDAR ISLAND NOT AVBL JACKSONVILLE MOSUNNY 67 53 61 NE13G23 30.35S PINEY ISLAND NOT AVBL WILMINGTON SUNNY 69 53 56 NE13 30.34S $$ NCZ011>013-027>030-043-044-078>080-089-090>093-098-181700- COASTAL PLAIN CITY SKY/WX TMP DP RH WIND PRES REMARKS AHOSKIE SUNNY 61 48 62 E5 30.40S CLINTON SUNNY 65 49 56 NE9 30.38F ELIZABETHTOWN NOT AVBL GOLDSBORO SUNNY 64 48 57 NE8G17 30.37S GREENVILLE SUNNY 64 50 59 E6 30.39R HAVELOCK SUNNY 69 54 58 NE14 30.36R KENANSVILLE SUNNY 64 50 59 N6 30.37F KINSTON SUNNY 66 50 55 NE6 30.39R NEW BERN SUNNY 67 54 63 NE9 30.37S RICHLANDS SUNNY 66 52 60 NE10 30.37S ROCKY MOUNT SUNNY 63 48 58 E8 30.40S WASHINGTON MOSUNNY 66 52 60 E7 30.38S WHITEVILLE SUNNY 64 50 60 NE8 30.35S $$ AMZ130-135-150-152-154-156-158-170-250-252-270-ANZ085-086-088-633-658-670-181700- MARINE OBSERVATIONS STATION/POSITION TIME TEMP WIND PRES WAVE SWELL AIR SEA DIR/SP/G HT/PER HT/PER (UTC) (F) (DEG/KT/KT) (MB) (FT/S) (FT/S) CHESAPEAKE LIGHT NOT AVBL 64 E VA BEACH 1550 63 67 40/ 12/ 16 1028.9 5/ 8 3/ 8 DUCK 1600 64 68 40/ 12/ 16 1028.2 2 E DUCK 1600 70 N/A 4/10 2/11 OREGON INLET 1600 66 64 30/ 11/ 16 1027.9 13E OREGON INLT 1548 71 N/A 5/ 9 3/ 9 HATTERAS CG 1600 66 67 30/ 13/ 18 1027.2 DIAMOND BUOY 1550 69 82 20/ 19/ 23 1026.0 6/ 9 3/ 9 CAPE LOOKOUT 1600 67 30/ 18/ 21 1026.7 BEAUFORT LAB 1600 67 69 10/ 13/ 16 1027.3 30 SE NEW RVR IN 1508 68 40/ 19/ 29 1025.7 30 SE NEW RVR IN NOT AVBL 27 SE WRIGHTSVLE 1508 69 77 70/ 19/ 25 1025.6 5 SE WRIGHTSVLE 1608 66 74 30/ 14/ 23 1026.9 225 S CAPE HAT 1550 75 80 50/ 23/ 29 1020.5 9/ 9 5/ 9 41 SE CHARLESTON 1610 71 80 20/ 21/ 27 1024.2 $$

USA.gov is the U.S. government's official web portal to all federal, state and local government web resources and services.